Location: Spondin
(51.8528°N, 111.6118°W)
Time: 07:39:06
(UTC+00:00)

X-37B - Visible Passes

Search period start: 24 January 2022 00:00
Search period end: 03 February 2022 00:00
Orbit: 334 x 337 km, 45.0° (Epoch: 11 January)

Date Brightness Start Highest point End Pass type
(mag) Time Alt. Az. Time Alt. Az. Time Alt. Az.
30 Jan 2.6 01:53:24 10° SSW 01:55:05 15° SSE 01:55:16 14° SSE visible
31 Jan 2.4 02:13:06 10° SW 02:14:53 19° S 02:14:53 19° S visible
01 Feb 2.8 00:58:50 10° SSW 01:00:30 14° SSE 01:02:12 10° SE visible
01 Feb 2.8 02:33:10 10° SW 02:34:29 18° SSW 02:34:29 18° SSW visible
02 Feb 2.4 01:18:32 10° SW 01:20:39 19° S 01:22:47 10° ESE visible
02 Feb 3.4 02:53:30 10° WSW 02:54:05 13° SW 02:54:05 13° SW visible
